"startDT [UTC]","vpos","CH4 [ppm]","stdev(CH4) [ppm]","CO2 [ppm]","stdev(CO2) [ppm]","H2O [ppm]","stdev(H2O)","p_LGR [torr]","T_LGR [C]","mt1_LGR [us]","mt2_LGR [us]","T_ECpre [C]","T_EC1 [C]","T_EC2 [C]","p_inlet [hPa]","p_in [hPa]","p_out [hPa]","T_inlet [C]","RH_inlet [%]","dwpt_inlet [C]","T_vent [C]","RH_vent [%]","dwpt_vent [C]","flow_vent [l min-1]","flow_inlet [l min-1]","dwpt_sample [C]","T_room [C]"
2012-10-04 00:00:00,0.0,1.9411,0.0012,395.67,0.27,213.4,36.4,138.14,27.47,24.63,36.40,0.04,-272.75,-272.75,-40,561,-933,21.6,13.4,-7.6,21.9,13.5,-7.3,5.73,2.40,-23.7,27.2
2012-10-04 00:01:00,0.0,1.9412,0.0009,395.75,0.32,214.3,34.7,138.14,27.47,24.63,36.40,0.04,-272.75,-272.75,-40,561,-933,21.5,13.4,-7.6,21.9,13.5,-7.3,5.73,2.40,-23.7,27.2
2012-10-04 00:02:00,0.0,1.9412,0.0008,395.65,0.27,215.2,31.3,138.14,27.47,24.63,36.40,0.04,-272.74,-272.75,-40,561,-932,21.5,13.4,-7.6,21.9,13.5,-7.3,5.73,2.40,-23.7,27.2
2012-10-04 00:03:00,0.0,1.9417,0.0009,395.66,0.30,216.1,28.9,138.14,27.47,24.63,36.41,0.04,-272.75,-272.75,-40,561,-932,21.5,13.4,-7.7,21.9,13.4,-7.3,5.73,2.40,-23.7,27.2
2012-10-04 00:04:00,0.0,1.9419,0.0009,395.81,0.32,205.8,31.8,138.14,27.46,24.63,36.40,0.04,-272.75,-272.75,-40,561,-933,21.5,13.4,-7.7,21.9,13.4,-7.4,5.73,2.40,-23.7,27.2
2012-10-04 00:05:00,0.0,1.9418,0.0009,395.80,0.27,209.0,31.4,138.14,27.46,24.63,36.40,0.04,-272.75,-272.75,-40,561,-932,21.5,13.3,-7.7,21.9,13.4,-7.4,5.73,2.40,-23.7,27.2
2012-10-04 00:06:00,0.0,1.9425,0.0009,395.76,0.31,207.3,30.5,138.14,27.46,24.63,36.40,0.04,-272.74,-272.74,-40,562,-932,21.5,13.3,-7.7,21.9,13.4,-7.4,5.73,2.40,-23.7,27.2
2012-10-04 00:07:00,0.0,1.9425,0.0011,395.85,0.25,202.0,29.8,138.14,27.46,24.63,36.39,0.04,-272.75,-272.75,-40,561,-933,21.6,13.3,-7.7,21.9,13.4,-7.4,5.73,2.40,-23.7,27.1
2012-10-04 00:08:00,0.0,1.9426,0.0009,395.78,0.30,204.2,32.2,138.14,27.46,24.63,36.41,0.04,-272.75,-272.75,-40,561,-932,21.5,13.3,-7.8,21.9,13.4,-7.4,5.73,2.41,-23.7,27.2
2012-10-04 00:09:00,0.0,1.9427,0.0008,395.80,0.29,213.7,31.3,138.14,27.46,24.63,36.40,0.04,-272.74,-272.75,-40,561,-932,21.5,13.4,-7.7,21.9,13.4,-7.4,5.73,2.41,-23.7,27.2
2012-10-04 00:10:00,0.0,1.9427,0.0009,395.81,0.29,205.6,33.6,138.14,27.46,24.63,36.40,0.04,-272.75,-272.75,-40,561,-933,21.5,13.4,-7.7,21.9,13.5,-7.3,5.73,2.41,-23.7,27.2
2012-10-04 00:11:00,0.0,1.9426,0.0008,395.78,0.35,208.5,36.9,138.14,27.45,24.63,36.40,0.04,-272.75,-272.75,-40,561,-932,21.5,13.5,-7.6,21.9,13.5,-7.3,5.73,2.41,-23.7,27.2
2012-10-04 00:12:00,0.0,1.9418,0.0010,395.76,0.31,214.0,36.7,138.14,27.45,24.63,36.40,0.04,-272.75,-272.75,-40,561,-932,21.5,13.5,-7.6,21.9,13.6,-7.2,5.73,2.42,-23.7,27.2
2012-10-04 00:13:00,0.0,1.9411,0.0008,395.69,0.26,222.2,32.3,138.14,27.45,24.63,36.41,0.04,-272.75,-272.75,-40,561,-933,21.6,13.5,-7.5,21.9,13.6,-7.2,5.73,2.42,-23.7,27.2
2012-10-04 00:14:00,0.0,1.9402,0.0009,395.68,0.28,211.3,24.4,138.14,27.45,24.63,36.40,0.04,-272.75,-272.75,-40,561,-932,21.6,13.6,-7.5,21.9,13.6,-7.2,5.73,2.42,-23.7,27.2
2012-10-04 00:15:00,0.0,1.9403,0.0010,395.59,0.29,215.4,30.3,138.14,27.45,24.63,36.40,0.04,-272.74,-272.75,-40,561,-932,21.5,13.6,-7.5,21.9,13.7,-7.1,5.73,2.42,-23.7,27.2
2012-10-04 00:16:00,0.0,1.9400,0.0010,395.58,0.30,215.7,29.4,138.14,27.45,24.63,36.41,0.04,-272.75,-272.75,-40,561,-933,21.5,13.6,-7.4,21.9,13.7,-7.1,5.73,2.42,-23.7,27.3
2012-10-04 00:17:00,0.0,1.9401,0.0009,395.59,0.32,217.8,32.7,138.14,27.45,24.63,36.40,0.04,-272.75,-272.75,-40,561,-932,21.5,13.6,-7.4,21.9,13.7,-7.1,5.73,2.42,-23.7,27.2
2012-10-04 00:18:00,0.0,1.9406,0.0007,395.65,0.28,215.7,30.8,138.14,27.45,24.63,36.40,0.04,-272.75,-272.75,-40,561,-933,21.5,13.6,-7.4,21.9,13.7,-7.1,5.73,2.42,-23.7,27.2
2012-10-04 00:19:00,0.0,1.9404,0.0010,395.72,0.30,216.5,35.8,138.14,27.45,24.63,36.40,0.04,-272.75,-272.75,-40,561,-933,21.5,13.6,-7.4,21.9,13.7,-7.1,5.73,2.42,-23.7,27.3
2012-10-04 00:20:00,0.0,1.9407,0.0009,395.66,0.31,210.5,31.8,138.14,27.45,24.63,36.40,0.04,-272.75,-272.75,-40,561,-932,21.5,13.7,-7.4,21.9,13.7,-7.1,5.73,2.42,-23.7,27.2
2012-10-04 00:21:00,0.0,1.9407,0.0010,395.69,0.27,208.8,36.0,138.14,27.45,24.63,36.40,0.04,-272.75,-272.75,-40,561,-933,21.5,13.6,-7.4,21.9,13.7,-7.1,5.73,2.42,-23.6,27.2
2012-10-04 00:22:00,0.0,1.9402,0.0010,395.68,0.29,209.5,33.2,138.14,27.45,24.63,36.40,0.04,-272.75,-272.75,-40,561,-932,21.5,13.7,-7.4,21.9,13.7,-7.1,5.73,2.41,-23.7,27.2
2012-10-04 00:23:00,0.0,1.9400,0.0010,395.54,0.27,213.7,31.0,138.14,27.45,24.63,36.40,0.04,-272.75,-272.75,-40,561,-932,21.5,13.7,-7.4,21.9,13.7,-7.1,5.73,2.41,-23.7,27.2
2012-10-04 00:24:00,0.0,1.9394,0.0009,395.58,0.37,206.0,33.0,138.14,27.45,24.63,36.40,0.04,-272.75,-272.75,-40,561,-933,21.5,13.8,-7.3,21.9,13.8,-7.0,5.73,2.41,-23.6,27.2
2012-10-04 00:25:00,0.0,1.9395,0.0009,395.61,0.33,213.9,37.8,138.14,27.45,24.63,36.39,0.04,-272.75,-272.75,-40,561,-932,21.6,13.8,-7.2,21.9,13.9,-6.9,5.73,2.41,-23.6,27.2
2012-10-04 00:26:00,0.0,1.9389,0.0010,395.56,0.28,215.5,37.3,138.14,27.45,24.63,36.40,0.04,-272.74,-272.75,-40,561,-933,21.5,13.8,-7.2,21.9,13.9,-6.9,5.73,2.41,-23.6,27.3
2012-10-04 00:27:00,0.0,1.9397,0.0010,395.62,0.30,208.5,30.7,138.14,27.45,24.63,36.40,0.04,-272.75,-272.75,-40,561,-933,21.5,13.9,-7.2,21.9,14.0,-6.8,5.73,2.41,-23.6,27.2
2012-10-04 00:28:00,0.0,1.9395,0.0007,395.55,0.30,224.5,30.9,138.14,27.45,24.63,36.40,0.04,-272.75,-272.75,-40,561,-932,21.5,14.0,-7.1,21.9,14.1,-6.8,5.73,2.40,-23.6,27.3
2012-10-04 00:29:00,0.0,1.9397,0.0009,395.53,0.25,216.3,33.0,138.14,27.45,24.63,36.40,0.04,-272.75,-272.75,-40,561,-933,21.5,14.0,-7.1,21.9,14.0,-6.8,5.73,2.41,-23.6,27.2
2012-10-04 00:30:00,0.0,1.9398,0.0009,395.59,0.29,215.4,32.4,138.14,27.45,24.63,36.40,0.04,-272.75,-272.75,-40,561,-933,21.6,14.0,-7.1,21.9,14.0,-6.8,5.73,2.41,-23.6,27.2
2012-10-04 00:31:00,0.0,1.9398,0.0010,395.62,0.27,219.4,28.0,138.14,27.45,24.63,36.40,0.04,-272.75,-272.75,-40,561,-932,21.6,14.0,-7.1,21.9,14.0,-6.8,5.73,2.40,-23.6,27.2
2012-10-04 00:32:00,0.0,1.9398,0.0009,395.65,0.31,213.8,30.4,138.14,27.45,24.63,36.40,0.04,-272.75,-272.75,-40,561,-933,21.6,14.0,-7.1,21.9,14.1,-6.7,5.73,2.41,-23.6,27.2
2012-10-04 00:33:00,0.0,1.9404,0.0010,395.59,0.29,218.2,31.2,138.14,27.44,24.63,36.40,0.04,-272.74,-272.75,-40,562,-932,21.6,14.0,-7.1,21.9,14.1,-6.7,5.73,2.40,-23.6,27.2
2012-10-04 00:34:00,0.0,1.9407,0.0009,395.68,0.28,218.4,26.7,138.14,27.44,24.63,36.40,0.04,-272.75,-272.75,-40,562,-932,21.6,14.0,-7.1,21.9,14.0,-6.8,5.73,2.40,-23.6,27.2
2012-10-04 00:35:00,0.0,1.9403,0.0009,395.57,0.27,221.2,30.3,138.14,27.44,24.63,36.40,0.04,-272.75,-272.75,-40,561,-933,21.6,14.0,-7.1,21.9,14.1,-6.8,5.73,2.40,-23.6,27.2
2012-10-04 00:36:00,0.0,1.9410,0.0008,395.62,0.28,220.3,25.3,138.14,27.44,24.63,36.40,0.04,-272.74,-272.75,-40,561,-932,21.6,13.9,-7.1,21.9,14.0,-6.8,5.73,2.41,-23.6,27.1
2012-10-04 00:37:00,0.0,1.9413,0.0009,395.63,0.31,221.8,36.2,138.14,27.44,24.63,36.40,0.04,-272.75,-272.75,-40,562,-932,21.6,14.0,-7.1,21.9,14.1,-6.7,5.73,2.40,-23.6,27.2
2012-10-04 00:38:00,0.0,1.9404,0.0009,395.54,0.31,225.5,32.4,138.14,27.44,24.63,36.41,0.04,-272.75,-272.75,-40,561,-933,21.6,14.1,-7.0,21.9,14.2,-6.7,5.73,2.41,-23.6,27.1
2012-10-04 00:39:00,0.0,1.9407,0.0010,395.54,0.24,218.1,32.2,138.14,27.44,24.63,36.40,0.04,-272.75,-272.75,-40,561,-932,21.6,14.1,-7.0,21.9,14.2,-6.6,5.73,2.40,-23.6,27.2
2012-10-04 00:40:00,0.0,1.9410,0.0011,395.69,0.22,219.1,32.3,138.14,27.44,24.63,36.39,0.04,-272.74,-272.75,-40,562,-933,21.6,14.1,-7.0,21.9,14.2,-6.6,5.73,2.41,-23.6,27.2
2012-10-04 00:41:00,0.0,1.9417,0.0009,395.70,0.29,216.3,30.1,138.14,27.44,24.63,36.40,0.04,-272.74,-272.75,-40,561,-933,21.6,14.1,-6.9,21.9,14.2,-6.6,5.73,2.40,-23.6,27.2
2012-10-04 00:42:00,0.0,1.9420,0.0008,395.73,0.29,214.9,35.2,138.14,27.44,24.63,36.40,0.04,-272.75,-272.75,-40,561,-932,21.6,14.2,-6.9,21.9,14.3,-6.6,5.73,2.40,-23.6,27.2
2012-10-04 00:43:00,0.0,1.9416,0.0009,395.65,0.30,215.1,31.1,138.14,27.44,24.63,36.40,0.04,-272.75,-272.75,-40,561,-932,21.6,14.2,-6.9,21.9,14.3,-6.5,5.73,2.41,-23.6,27.2
2012-10-04 00:44:00,0.0,1.9413,0.0011,395.68,0.29,219.3,34.1,138.14,27.44,24.63,36.40,0.04,-272.75,-272.75,-40,561,-933,21.6,14.2,-6.9,21.9,14.3,-6.5,5.73,2.40,-23.6,27.2
2012-10-04 00:45:00,0.0,1.9417,0.0009,395.66,0.30,225.1,30.4,138.14,27.44,24.63,36.40,0.04,-272.75,-272.75,-40,562,-932,21.6,14.2,-6.9,21.9,14.3,-6.5,5.73,2.41,-23.6,27.2
2012-10-04 00:46:00,0.0,1.9420,0.0010,395.67,0.33,209.9,37.8,138.14,27.44,24.63,36.40,0.04,-272.75,-272.75,-40,561,-932,21.6,14.2,-6.9,21.9,14.3,-6.5,5.73,2.41,-23.6,27.2
2012-10-04 00:47:00,0.0,1.9405,0.0011,395.55,0.31,223.5,43.4,138.14,27.44,24.63,36.40,0.04,-272.75,-272.74,-40,561,-933,21.6,14.2,-6.8,21.9,14.3,-6.5,5.73,2.41,-23.6,27.1
2012-10-04 00:48:00,0.0,1.9404,0.0011,395.61,0.32,225.6,32.7,138.14,27.43,24.63,36.40,0.04,-272.75,-272.75,-40,562,-932,21.6,14.2,-6.8,21.9,14.3,-6.5,5.73,2.41,-23.6,27.1
2012-10-04 00:49:00,0.0,1.9427,0.0010,395.82,0.25,214.4,31.6,138.14,27.43,24.63,36.39,0.04,-272.74,-272.75,-40,561,-932,21.6,14.3,-6.8,21.9,14.3,-6.5,5.73,2.42,-23.6,27.1
2012-10-04 00:50:00,0.0,1.9426,0.0008,395.81,0.31,218.5,35.2,138.14,27.43,24.63,36.39,0.04,-272.74,-272.74,-40,562,-933,21.6,14.3,-6.8,21.9,14.4,-6.5,5.73,2.42,-23.6,27.2
2012-10-04 00:51:00,0.0,1.9423,0.0009,395.67,0.26,206.8,30.5,138.14,27.43,24.63,36.40,0.04,-272.74,-272.75,-40,561,-932,21.6,14.3,-6.7,21.9,14.4,-6.4,5.73,2.42,-23.6,27.2
2012-10-04 00:52:00,0.0,1.9418,0.0009,395.53,0.28,218.6,27.5,138.14,27.43,24.63,36.40,0.04,-272.75,-272.75,-40,562,-932,21.6,14.3,-6.7,21.9,14.4,-6.4,5.73,2.42,-23.6,27.1
2012-10-04 00:53:00,0.0,1.9418,0.0008,395.63,0.32,220.7,33.9,138.14,27.43,24.63,36.40,0.04,-272.75,-272.75,-40,562,-933,21.6,14.3,-6.8,21.9,14.4,-6.4,5.73,2.42,-23.6,27.1
2012-10-04 00:54:00,0.0,1.9418,0.0007,395.72,0.29,210.5,31.6,138.14,27.43,24.63,36.40,0.04,-272.75,-272.75,-40,562,-932,21.6,14.3,-6.8,21.9,14.4,-6.4,5.73,2.42,-23.6,27.1
2012-10-04 00:55:00,0.0,1.9405,0.0014,395.61,0.30,213.5,36.7,138.14,27.43,24.63,36.40,0.04,-272.75,-272.75,-40,561,-932,21.6,14.3,-6.7,21.9,14.4,-6.4,5.73,2.42,-23.6,27.1
2012-10-04 00:56:00,0.0,1.9402,0.0010,395.65,0.29,214.6,30.8,138.14,27.43,24.63,36.40,0.04,-272.75,-272.75,-40,561,-933,21.7,14.4,-6.7,21.9,14.5,-6.4,5.73,2.42,-23.6,27.1
2012-10-04 00:57:00,0.0,1.9402,0.0010,395.66,0.31,211.5,33.7,138.14,27.43,24.63,36.40,0.04,-272.75,-272.75,-40,562,-932,21.6,14.4,-6.6,21.9,14.5,-6.3,5.73,2.42,-23.6,27.1
2012-10-04 00:58:00,0.0,1.9414,0.0009,395.61,0.31,206.4,31.0,138.14,27.43,24.63,36.40,0.04,-272.75,-272.75,-40,561,-932,21.6,14.4,-6.6,21.9,14.5,-6.3,5.73,2.41,-23.6,27.1
2012-10-04 00:59:00,0.0,1.9406,0.0009,395.62,0.32,214.1,35.0,138.14,27.43,24.63,36.40,0.04,-272.75,-272.75,-40,561,-933,21.7,14.4,-6.6,21.9,14.6,-6.3,5.73,2.41,-23.6,27.1
2012-10-04 01:00:00,0.0,1.9400,0.0009,395.61,0.28,209.2,33.2,138.14,27.43,24.63,36.40,0.04,-272.75,-272.75,-40,561,-932,21.6,14.4,-6.6,21.9,14.6,-6.3,5.73,2.42,-23.6,27.1
2012-10-04 01:01:00,0.0,1.9410,0.0010,395.66,0.32,211.4,32.7,138.14,27.43,24.62,36.40,0.04,-272.75,-272.75,-40,562,-932,21.6,14.5,-6.6,21.9,14.6,-6.3,5.73,2.41,-23.6,27.1
2012-10-04 01:02:00,0.0,1.9405,0.0008,395.62,0.28,220.1,35.9,138.14,27.43,24.63,36.40,0.04,-272.75,-272.75,-40,562,-933,21.6,14.5,-6.6,22.0,14.6,-6.2,5.73,2.41,-23.6,27.1
2012-10-04 01:03:00,0.0,1.9408,0.0009,395.63,0.25,211.2,36.5,138.14,27.42,24.63,36.40,0.04,-272.74,-272.74,-40,562,-933,21.7,14.5,-6.5,21.9,14.6,-6.2,5.73,2.41,-23.6,27.1
2012-10-04 01:04:00,0.0,1.9405,0.0010,395.56,0.32,217.5,32.1,138.14,27.42,24.63,36.40,0.04,-272.75,-272.75,-40,562,-932,21.7,14.5,-6.5,22.0,14.6,-6.2,5.73,2.41,-23.6,27.1
2012-10-04 01:05:00,0.0,1.9401,0.0008,395.70,0.27,213.9,33.3,138.14,27.42,24.63,36.40,0.04,-272.75,-272.75,-40,562,-932,21.7,14.5,-6.5,21.9,14.6,-6.2,5.73,2.41,-23.6,27.1
2012-10-04 01:06:00,0.0,1.9401,0.0010,395.59,0.33,214.6,30.4,138.14,27.42,24.63,36.40,0.04,-272.74,-272.75,-40,562,-933,21.7,14.6,-6.5,22.0,14.7,-6.2,5.73,2.40,-23.6,27.2
2012-10-04 01:07:00,0.0,1.9405,0.0009,395.67,0.23,213.8,37.3,138.14,27.42,24.63,36.40,0.04,-272.75,-272.75,-40,561,-933,21.7,14.6,-6.4,21.9,14.7,-6.1,5.73,2.41,-23.6,27.2
2012-10-04 01:08:00,0.0,1.9408,0.0009,395.69,0.29,220.9,32.6,138.14,27.42,24.63,36.39,0.04,-272.75,-272.75,-40,562,-932,21.7,14.6,-6.4,22.0,14.7,-6.1,5.73,2.41,-23.6,27.1
2012-10-04 01:09:00,0.0,1.9408,0.0009,395.56,0.32,214.5,39.2,138.14,27.42,24.63,36.40,0.04,-272.75,-272.75,-40,562,-933,21.7,14.6,-6.4,22.0,14.7,-6.1,5.73,2.40,-23.6,27.2
2012-10-04 01:10:00,0.0,1.9403,0.0009,395.57,0.30,227.1,33.1,138.14,27.42,24.63,36.40,0.04,-272.75,-272.75,-40,561,-933,21.7,14.6,-6.4,22.0,14.7,-6.1,5.73,2.41,-23.6,27.2
2012-10-04 01:11:00,0.0,1.9412,0.0011,395.65,0.27,229.0,30.0,138.14,27.42,24.62,36.40,0.04,-272.75,-272.75,-40,562,-932,21.7,14.6,-6.4,22.0,14.7,-6.1,5.73,2.40,-23.6,27.2
2012-10-04 01:12:00,0.0,1.9412,0.0009,395.65,0.28,227.0,34.4,138.14,27.42,24.63,36.40,0.04,-272.75,-272.75,-40,561,-932,21.7,14.7,-6.4,21.9,14.8,-6.1,5.73,2.40,-23.6,27.2
2012-10-04 01:13:00,0.0,1.9413,0.0009,395.66,0.27,212.1,34.4,138.14,27.42,24.63,36.39,0.04,-272.75,-272.75,-40,562,-933,21.7,14.7,-6.3,22.0,14.8,-6.0,5.73,2.41,-23.6,27.1
2012-10-04 01:14:00,0.0,1.9413,0.0010,395.77,0.32,216.4,33.8,138.14,27.42,24.63,36.39,0.04,-272.74,-272.74,-40,562,-932,21.7,14.8,-6.3,22.0,14.9,-6.0,5.73,2.40,-23.6,27.1
2012-10-04 01:15:00,0.0,1.9402,0.0011,395.59,0.31,224.8,34.8,138.14,27.42,24.62,36.40,0.04,-272.75,-272.75,-40,562,-932,21.7,14.8,-6.2,22.0,14.9,-5.9,5.73,2.40,-23.6,27.2
2012-10-04 01:16:00,0.0,1.9389,0.0009,395.65,0.27,223.1,31.1,138.14,27.42,24.63,36.39,0.04,-272.75,-272.75,-40,562,-933,21.7,14.8,-6.3,22.0,14.9,-6.0,5.73,2.40,-23.6,27.2
2012-10-04 01:17:00,0.0,1.9385,0.0008,395.53,0.30,223.7,34.5,138.14,27.42,24.63,36.40,0.04,-272.75,-272.75,-40,561,-932,21.7,14.7,-6.4,22.0,14.8,-6.0,5.73,2.40,-23.5,27.1
2012-10-04 01:18:00,0.0,1.9387,0.0008,395.53,0.35,222.3,35.4,138.14,27.41,24.63,36.40,0.04,-272.75,-272.75,-40,562,-932,21.7,14.7,-6.4,22.0,14.8,-6.1,5.73,2.41,-23.6,27.1
2012-10-04 01:19:00,0.0,1.9385,0.0009,395.62,0.25,223.6,32.5,138.14,27.42,24.63,36.39,0.04,-272.74,-272.75,-40,562,-933,21.7,14.6,-6.4,22.0,14.8,-6.1,5.73,2.40,-23.6,27.1
2012-10-04 01:20:00,0.0,1.9391,0.0008,395.43,0.27,219.1,32.2,138.14,27.42,24.63,36.40,0.04,-272.74,-272.74,-40,562,-933,21.7,14.6,-6.4,22.0,14.8,-6.1,5.73,2.40,-23.5,27.1
2012-10-04 01:21:00,0.0,1.9390,0.0010,395.54,0.27,221.3,26.2,138.14,27.42,24.63,36.40,0.04,-272.75,-272.75,-40,562,-932,21.7,14.7,-6.4,22.0,14.8,-6.1,5.73,2.41,-23.6,27.1
2012-10-04 01:22:00,0.0,1.9391,0.0011,395.49,0.27,219.7,36.6,138.14,27.42,24.63,36.40,0.04,-272.75,-272.75,-40,562,-932,21.7,14.7,-6.3,22.0,14.8,-6.0,5.73,2.41,-23.6,27.1
2012-10-04 01:23:00,0.0,1.9392,0.0010,395.48,0.29,227.1,36.8,138.14,27.42,24.63,36.41,0.04,-272.74,-272.75,-40,562,-933,21.7,14.8,-6.3,22.0,14.9,-6.0,5.73,2.41,-23.6,27.0
2012-10-04 01:24:00,0.0,1.9398,0.0011,395.58,0.30,223.0,39.5,138.14,27.42,24.63,36.40,0.04,-272.75,-272.75,-40,562,-932,21.7,14.8,-6.3,22.0,14.9,-5.9,5.73,2.41,-23.6,27.1
2012-10-04 01:25:00,0.0,1.9385,0.0009,395.53,0.32,215.5,33.0,138.14,27.42,24.63,36.40,0.04,-272.75,-272.75,-40,562,-932,21.7,14.8,-6.3,22.0,14.9,-5.9,5.73,2.42,-23.6,27.1
2012-10-04 01:26:00,0.0,1.9391,0.0009,395.54,0.29,216.4,37.7,138.14,27.42,24.63,36.40,0.04,-272.75,-272.75,-40,562,-933,21.7,14.8,-6.3,22.0,14.9,-6.0,5.73,2.41,-23.6,27.1
2012-10-04 01:27:00,0.0,1.9392,0.0009,395.55,0.31,220.4,32.3,138.14,27.41,24.63,36.40,0.04,-272.75,-272.75,-40,562,-933,21.7,14.8,-6.3,22.0,14.9,-5.9,5.73,2.42,-23.5,27.1
2012-10-04 01:28:00,0.0,1.9389,0.0012,395.58,0.28,224.3,32.8,138.14,27.41,24.63,36.40,0.04,-272.75,-272.75,-40,562,-932,21.7,14.8,-6.3,22.0,14.9,-5.9,5.73,2.42,-23.6,27.1
2012-10-04 01:29:00,0.0,1.9377,0.0011,395.48,0.30,218.5,30.3,138.14,27.41,24.63,36.40,0.04,-272.75,-272.75,-40,562,-932,21.7,14.7,-6.4,22.0,14.8,-6.0,5.73,2.42,-23.6,27.1
2012-10-04 01:30:00,0.0,1.9378,0.0009,395.48,0.34,222.0,39.7,138.14,27.41,24.63,36.40,0.04,-272.74,-272.74,-40,562,-933,21.7,14.6,-6.4,22.0,14.7,-6.1,5.73,2.42,-23.5,27.1
2012-10-04 01:31:00,0.0,1.9379,0.0009,395.46,0.28,218.7,35.5,138.14,27.41,24.63,36.40,0.04,-272.75,-272.75,-40,562,-933,21.7,14.6,-6.4,22.0,14.7,-6.1,5.73,2.42,-23.5,27.1
2012-10-04 01:32:00,0.0,1.9386,0.0010,395.62,0.29,214.2,37.0,138.14,27.41,24.63,36.40,0.04,-272.75,-272.75,-40,562,-932,21.7,14.7,-6.4,22.0,14.8,-6.0,5.73,2.41,-23.6,27.1
2012-10-04 01:33:00,0.0,1.9384,0.0011,395.45,0.36,217.0,30.7,138.14,27.41,24.63,36.40,0.04,-272.74,-272.75,-40,562,-932,21.7,14.7,-6.3,22.0,14.8,-6.0,5.73,2.42,-23.5,27.1
2012-10-04 01:34:00,0.0,1.9380,0.0010,395.41,0.29,215.5,33.3,138.14,27.41,24.63,36.41,0.04,-272.75,-272.75,-40,562,-933,21.7,14.7,-6.4,22.0,14.8,-6.0,5.73,2.42,-23.5,27.1
2012-10-04 01:35:00,0.0,1.9376,0.0008,395.50,0.29,219.3,30.3,138.14,27.41,24.63,36.40,0.04,-272.75,-272.75,-40,562,-933,21.7,14.7,-6.4,22.0,14.8,-6.0,5.73,2.42,-23.5,27.1
2012-10-04 01:36:00,0.0,1.9381,0.0012,395.51,0.25,222.5,35.2,138.14,27.41,24.63,36.40,0.04,-272.75,-272.75,-40,562,-932,21.7,14.7,-6.4,22.0,14.8,-6.0,5.73,2.41,-23.5,27.1
2012-10-04 01:37:00,0.0,1.9384,0.0009,395.62,0.28,220.4,35.6,138.14,27.41,24.63,36.39,0.04,-272.75,-272.75,-40,562,-932,21.7,14.7,-6.3,22.0,14.8,-6.0,5.73,2.41,-23.5,27.1
2012-10-04 01:38:00,0.0,1.9382,0.0010,395.55,0.36,224.0,33.9,138.14,27.40,24.63,36.40,0.04,-272.75,-272.75,-40,562,-933,21.7,14.8,-6.3,22.0,14.9,-5.9,5.73,2.41,-23.5,27.1
2012-10-04 01:39:00,0.0,1.9373,0.0011,395.44,0.29,220.7,34.1,138.14,27.40,24.63,36.41,0.04,-272.75,-272.75,-40,562,-933,21.7,14.7,-6.3,22.0,14.9,-6.0,5.73,2.41,-23.5,27.1
2012-10-04 01:40:00,0.0,1.9381,0.0009,395.46,0.25,216.2,30.8,138.14,27.40,24.63,36.40,0.04,-272.75,-272.75,-40,562,-932,21.7,14.7,-6.3,22.0,14.8,-6.0,5.73,2.40,-23.5,27.1
2012-10-04 01:41:00,0.0,1.9378,0.0011,395.43,0.32,228.9,34.9,138.14,27.40,24.63,36.41,0.04,-272.75,-272.75,-40,562,-933,21.7,14.7,-6.3,22.0,14.8,-6.0,5.73,2.40,-23.5,27.1
2012-10-04 01:42:00,0.0,1.9377,0.0011,395.48,0.32,217.8,36.0,138.14,27.40,24.63,36.40,0.04,-272.75,-272.75,-40,562,-933,21.7,14.8,-6.3,22.0,14.9,-5.9,5.73,2.40,-23.5,27.1
2012-10-04 01:43:00,0.0,1.9373,0.0009,395.52,0.26,228.0,30.0,138.14,27.40,24.63,36.39,0.04,-272.75,-272.75,-40,562,-932,21.7,14.8,-6.3,22.0,14.9,-5.9,5.73,2.41,-23.5,27.1
2012-10-04 01:44:00,0.0,1.9378,0.0008,395.54,0.29,221.0,28.0,138.14,27.40,24.63,36.39,0.04,-272.74,-272.75,-40,562,-932,21.7,14.8,-6.2,22.0,14.9,-5.9,5.73,2.40,-23.5,27.1
2012-10-04 01:45:00,0.0,1.9377,0.0008,395.50,0.31,222.9,33.5,138.14,27.40,24.63,36.40,0.04,-272.74,-272.75,-40,562,-933,21.7,14.8,-6.2,22.0,14.9,-5.9,5.73,2.39,-23.5,27.1
2012-10-04 01:46:00,0.0,1.9379,0.0008,395.49,0.30,222.8,29.1,138.14,27.40,24.63,36.40,0.04,-272.75,-272.75,-40,562,-933,21.7,14.8,-6.2,22.0,14.9,-5.9,5.73,2.40,-23.5,27.1
2012-10-04 01:47:00,0.0,1.9380,0.0009,395.45,0.31,223.9,33.0,138.14,27.40,24.63,36.40,0.04,-272.74,-272.75,-40,562,-932,21.7,14.8,-6.2,22.0,14.9,-5.9,5.73,2.40,-23.5,27.1
2012-10-04 01:48:00,0.0,1.9368,0.0008,395.48,0.30,226.5,28.2,138.14,27.40,24.63,36.39,0.04,-272.75,-272.75,-40,562,-932,21.7,14.8,-6.2,22.0,14.9,-5.9,5.73,2.40,-23.5,27.1
2012-10-04 01:49:00,0.0,1.9367,0.0009,395.46,0.30,217.3,30.2,138.14,27.40,24.63,36.39,0.04,-272.75,-272.75,-40,562,-933,21.7,14.8,-6.3,22.0,14.9,-5.9,5.73,2.40,-23.5,27.1
2012-10-04 01:50:00,0.0,1.9366,0.0010,395.47,0.27,223.7,37.5,138.14,27.40,24.63,36.40,0.04,-272.75,-272.75,-40,562,-933,21.7,14.8,-6.2,22.0,14.9,-5.9,5.73,2.40,-23.5,27.1
2012-10-04 01:51:00,0.0,1.9367,0.0009,395.45,0.29,223.1,35.6,138.14,27.40,24.63,36.40,0.04,-272.75,-272.75,-40,562,-932,21.7,14.9,-6.2,22.0,15.0,-5.8,5.73,2.40,-23.5,27.2
2012-10-04 01:52:00,0.0,1.9363,0.0009,395.31,0.33,226.5,33.6,138.14,27.40,24.63,36.41,0.04,-272.75,-272.75,-40,562,-933,21.7,14.9,-6.1,22.0,15.1,-5.8,5.73,2.40,-23.5,27.2
2012-10-04 01:53:00,0.0,1.9368,0.0009,395.41,0.33,227.1,33.9,138.14,27.40,24.63,36.40,0.04,-272.75,-272.75,-40,562,-933,21.7,15.0,-6.0,22.0,15.1,-5.7,5.73,2.41,-23.5,27.1
2012-10-04 01:54:00,0.0,1.9367,0.0010,395.31,0.29,226.3,38.3,138.14,27.40,24.63,36.41,0.04,-272.75,-272.74,-40,562,-932,21.7,15.0,-6.1,22.0,15.1,-5.7,5.73,2.41,-23.5,27.2
2012-10-04 01:55:00,0.0,1.9364,0.0009,395.32,0.31,220.2,30.2,138.14,27.40,24.63,36.40,0.04,-272.75,-272.75,-40,562,-932,21.7,14.9,-6.1,22.0,15.0,-5.8,5.73,2.41,-23.5,27.1
2012-10-04 01:56:00,0.0,1.9370,0.0009,395.45,0.30,222.8,33.9,138.14,27.40,24.63,36.39,0.04,-272.75,-272.75,-40,562,-933,21.7,14.9,-6.2,22.0,15.0,-5.8,5.73,2.41,-23.5,27.1
2012-10-04 01:57:00,0.0,1.9366,0.0009,395.50,0.32,225.5,37.1,138.14,27.40,24.63,36.40,0.04,-272.74,-272.74,-40,562,-933,21.7,14.9,-6.1,22.0,15.0,-5.8,5.73,2.41,-23.5,27.1
2012-10-04 01:58:00,0.0,1.9375,0.0009,395.58,0.27,221.5,28.8,138.14,27.40,24.63,36.39,0.04,-272.75,-272.75,-40,562,-932,21.7,14.9,-6.1,22.0,15.0,-5.8,5.73,2.42,-23.5,27.1
2012-10-04 01:59:00,0.0,1.9376,0.0009,395.44,0.33,223.2,36.8,138.14,27.40,24.63,36.40,0.04,-272.75,-272.75,-40,562,-932,21.7,15.0,-6.1,22.0,15.1,-5.7,5.73,2.42,-23.5,27.1
2012-10-04 02:00:00,0.0,1.9381,0.0009,395.55,0.32,217.5,32.9,138.14,27.40,24.63,36.40,0.04,-272.75,-272.75,-40,562,-933,21.7,15.0,-6.1,22.0,15.1,-5.7,5.73,2.41,-23.5,27.1
2012-10-04 02:01:00,0.0,1.9379,0.0009,395.52,0.25,221.1,32.6,138.14,27.40,24.63,36.40,0.04,-272.75,-272.75,-41,562,-932,21.7,15.0,-6.1,22.0,15.1,-5.7,5.73,2.42,-23.5,27.1
2012-10-04 02:02:00,0.0,1.9379,0.0011,395.56,0.28,216.7,28.7,138.14,27.40,24.63,36.39,0.04,-272.75,-272.75,-40,562,-932,21.7,15.0,-6.1,22.0,15.1,-5.7,5.73,2.42,-23.5,27.1
2012-10-04 02:03:00,0.0,1.9382,0.0010,395.55,0.29,224.1,30.7,138.14,27.40,24.63,36.40,0.04,-272.75,-272.75,-40,562,-933,21.7,14.9,-6.2,22.0,15.0,-5.9,5.73,2.41,-23.5,27.1
2012-10-04 02:04:00,0.0,1.9390,0.0009,395.57,0.27,223.3,37.9,138.14,27.40,24.63,36.40,0.04,-272.75,-272.75,-40,562,-933,21.7,14.8,-6.2,22.0,15.0,-5.9,5.73,2.42,-23.5,27.1
2012-10-04 02:05:00,0.0,1.9392,0.0009,395.58,0.29,229.7,34.7,138.14,27.40,24.63,36.41,0.04,-272.75,-272.75,-40,562,-932,21.7,14.9,-6.2,22.0,15.0,-5.8,5.73,2.42,-23.5,27.1
2012-10-04 02:06:00,0.0,1.9388,0.0010,395.70,0.28,224.9,35.1,138.14,27.39,24.63,36.39,0.04,-272.75,-272.75,-40,562,-932,21.7,14.9,-6.2,22.0,15.0,-5.8,5.73,2.42,-23.5,27.1
2012-10-04 02:07:00,0.0,1.9389,0.0011,395.63,0.29,223.9,35.6,138.14,27.39,24.63,36.39,0.04,-272.74,-272.75,-40,562,-933,21.7,14.9,-6.2,22.0,15.0,-5.8,5.73,2.42,-23.5,27.1
2012-10-04 02:08:00,0.0,1.9392,0.0009,395.65,0.30,226.5,34.2,138.14,27.39,24.63,36.40,0.04,-272.75,-272.75,-40,562,-933,21.7,15.0,-6.1,22.0,15.1,-5.7,5.73,2.42,-23.5,27.1
2012-10-04 02:09:00,0.0,1.9392,0.0011,395.67,0.34,224.9,32.8,138.14,27.39,24.63,36.40,0.04,-272.75,-272.75,-40,562,-932,21.7,15.1,-6.0,22.0,15.2,-5.6,5.73,2.41,-23.5,27.1
2012-10-04 02:10:00,0.0,1.9391,0.0011,395.61,0.24,218.5,38.1,138.14,27.39,24.63,36.39,0.04,-272.75,-272.75,-40,562,-932,21.7,15.1,-6.0,22.0,15.2,-5.6,5.73,2.41,-23.5,27.1
2012-10-04 02:11:00,0.0,1.9383,0.0008,395.56,0.23,219.7,26.4,138.14,27.39,24.63,36.40,0.04,-272.75,-272.75,-40,562,-933,21.7,15.1,-6.0,22.0,15.2,-5.6,5.73,2.41,-23.5,27.1
2012-10-04 02:12:00,0.0,1.9390,0.0008,395.62,0.30,221.8,33.6,138.14,27.39,24.63,36.40,0.04,-272.75,-272.75,-40,562,-933,21.7,15.1,-5.9,22.0,15.3,-5.6,5.73,2.40,-23.5,27.1
2012-10-04 02:13:00,0.0,1.9388,0.0006,395.67,0.29,215.3,34.7,138.14,27.39,24.63,36.40,0.04,-272.75,-272.75,-40,562,-932,21.7,15.2,-5.9,22.0,15.3,-5.6,5.73,2.40,-23.5,27.1
2012-10-04 02:14:00,0.0,1.9378,0.0009,395.47,0.26,222.0,34.5,138.14,27.39,24.63,36.40,0.04,-272.74,-272.74,-40,562,-932,21.7,15.2,-5.9,22.0,15.3,-5.6,5.73,2.41,-23.5,27.1
2012-10-04 02:15:00,0.0,1.9383,0.0009,395.59,0.33,231.3,32.6,138.14,27.39,24.63,36.40,0.04,-272.75,-272.75,-40,562,-933,21.7,15.1,-5.9,22.0,15.3,-5.6,5.73,2.40,-23.5,27.1
2012-10-04 02:16:00,0.0,1.9394,0.0011,395.61,0.29,227.3,32.1,138.14,27.39,24.62,36.40,0.04,-272.75,-272.75,-40,562,-933,21.7,15.3,-5.8,22.0,15.4,-5.5,5.73,2.40,-23.5,27.1